Mumbai, India

3:45 PM IST on August 31, 2015 (GMT +0530)
Chhatrapati Shivaji International | | Change Station
CLOSE
Current Station
Airport
Location: Mumbai,
Elevation: 46 ft
Nearby Weather Stations

Elev 46 ft 19.10 °N, 72.86 °E | Updated 1 hour ago

Haze
Haze
86 °F
Feels Like 97 °F
N
8
Wind Variable Wind from SW
Gusts 20 mph

Today
High -- | Low -- °F
--% Chance of Precip.
Yesterday
High -- | Low -- °F
Precip. -- in
6:23 AM 6:54 PM
Waning Gibbous, 96% visible
Pressure 29.77 in
Visibility 2.5 miles
Clouds Few 2000 ft
Scattered Clouds 2500 ft
Few 2500 ft
Heat Index 97 °F
Dew Point 77 °F
Humidity 74%
Rainfall 0.00 in
Snow Depth Not available.
UV 13 out of 12
Pollen Not available.
Air Quality Not available.
Flu Activity Not available.
METAR VABB 310910Z 23007G17KT 4000 HZ FEW020 SCT025 FEW025TCU 30/25 Q1008 NOSIG
Pressure 29.77 in
Visibility 2.5 miles
Clouds Few 2000 ft
Scattered Clouds 2500 ft
Few 2500 ft
Heat Index 97 °F
Dew Point 77 °F
Humidity 74%
Rainfall 0.00 in
Snow Depth Not available.
UV 13 out of 12
Pollen Not available.
Air Quality Not available.
Flu Activity Not available.
METAR VABB 310910Z 23007G17KT 4000 HZ FEW020 SCT025 FEW025TCU 30/25 Q1008 NOSIG

10-Day Weather Forecast

×

Almanac

Astronomy

Aug. 31, 2015 Rise Set
Actual Time
Civil Twilight
Nautical Twilight
Astronomical Twilight
Moon
Length of Visible Light
Length of Day
Tomorrow will be .
, % of the Moon is Illuminated

Today's Extremes

Country Highs Country Lows

Community

WunderPhotos

Upload Photos

1,851,229 photos uploaded!

WunderBlogs® & News

Nearby

Air Quality

  Air Quality AQ Index Pollutant
Not available.

Snow Depth

Station Depth Elevation

Earthquake Activity

City Distance Mag. Time & Date
Minimum magnitude displayed is 2.5.

Coastal Water Temperatures

Place Temperature

Stations

Nearby Weather Stations

Station Location Temp. Windchill Dew Point Humidity Wind Precip. Elev Updated Type